Location: Ammerl�gen
(47.2167°N, 9.6000°E)
Time: 17:39:14
(UTC+00:00)

NOAA 19 - Pass Details

Date: 10 December 2021
Orbit: 841 x 860 km, 99.2° (Epoch: 17 January)

Event Time Altitude Azimuth Distance (km) Brightness Sun altitude
Rises 05:52:55 0° 27° (NNE) 3,436 8.4 -10.4°
Reaches altitude 10° 05:55:55 10° 44° (NE) 2,497 7.9 -10.0°
Maximum altitude 06:00:01 21° 91° (E) 1,846 8.0 -9.3°
Drops below altitude 10° 06:04:05 10° 139° (SE) 2,491 8.8 -8.7°
Sets 06:07:04 0° 155° (SSE) 3,423 9.2 -8.2°
